Location: ????????
(55.4000°N, 39.1167°E)
Time: 13:46:29
(UTC+00:00)

In-Cosmos 22 - Pass Details

Date: 19 May 2025
Orbit: 783 x 875 km, 81.2° (Epoch: 20 June)

Event Time Altitude Azimuth Distance (km) Brightness Sun altitude
Exits shadow 21:49:29 21° 179° (S) 1,859 5.4 -14.4°
Maximum altitude 21:53:24 71° 100° (E) 926 4.4 -14.3°
Drops below altitude 10° 21:59:10 10° 18° (NNE) 2,541 8.1 -14.2°
Sets 22:01:38 0° 16° (NNE) 3,483 9.3 -14.1°
